Location: Norton
(51.3000°N, 0.8167°E)
Time: 12:38:12
(UTC+00:00)

Gbstr 26 Del rocket - Pass Details

Date: 03 March 2021
Orbit: 492 x 1264 km, 51.8° (Epoch: 16 April)

Event Time Altitude Azimuth Distance (km) Brightness Sun altitude
Rises 18:06:28 0° 249° (WSW) 2,709 8.2 -4.8°
Reaches altitude 10° 18:08:31 10° 248° (WSW) 1,885 7.0 -5.1°
Maximum altitude 18:12:46 77° 163° (SSE) 673 3.2 -5.7°
Drops below altitude 10° 18:18:00 10° 78° (ENE) 2,304 5.3 -6.6°
Enters shadow 18:18:36 - 77° (ENE) 2,534 5.5 -6.7°
